Regional Weather Roundup
Issued by NWS Upton, NY

Current Version | Previous Version | Text Only | Print | Product List | Glossary On
Versions: 1 2 3 4 5 6 7 8 9 10 11 12 13 14 15 16 17 18 19 20 21 22 23 24 25 26 27 28 29 30 31 32 33 34 35 36 37 38 39 40 41 42 43 44 45 46 47 48 49 50
000 ASUS41 KOKX 270105 RWROKX Regional Weather Roundup National Weather Service New York NY 900 PM EDT SAT MAY 26 2018 Note: "FAIR" indicates few or no clouds below 12,000 feet with no significant weather and/or obstructions to visibility. NYZ071-072-176-178-NJZ106-104-270200- New York City Metro Area CITY SKY/WX TMP DP RH WIND PRES REMARKS Central Park FAIR 80 67 64 CALM 29.85R Bronx Bot Gard N/A 77 64 65 E2 29.85R Bronx Lehman C N/A 81 66 61 SE3 N/A LaGuardia Arpt MOCLDY 80 65 59 CALM 29.82R Queens College N/A 79 64 61 S3 N/A Kennedy Intl MOCLDY 73 66 78 CALM 29.84R Breezy Point N/A 72 N/A N/A N2 N/A Brooklyn Coll N/A 77 63 61 S3 N/A Staten Island N/A 77 66 69 N2 N/A Newark/Liberty FAIR 79 66 64 S6 29.82R Teterboro FAIR 82 66 58 CALM 29.81R $$ NYZ177-179-078>081-270200- Long Island New York CITY SKY/WX TMP DP RH WIND PRES REMARKS Jones Beach N/A 66 N/A N/A CALM N/A Wantagh N/A 68 63 83 E2 N/A Hempstead N/A 75 66 73 CALM 29.86R Matinecock Pt N/A 72 N/A N/A CALM N/A Farmingdale FAIR 71 65 81 S3 29.84R MacArthur/ISP MOCLDY 71 65 81 S5 29.84R Stony Brook N/A 75 66 73 S2 N/A Shirley FAIR 70 66 87 S7 29.85R Mt Sinai Harb N/A N/A N/A N/A S5 N/A Westhampton FAIR 67 61 81 SW6 29.87R East Hampton FAIR 64 61 88 SW5 29.85R Southold N/A 72 66 83 S5 N/A Montauk N/A 70 64 81 VRB3 29.86R $$ NYZ052-065-067-270200- Hudson Valley CITY SKY/WX TMP DP RH WIND PRES REMARKS White Plains FAIR 76 66 71 CALM 29.84R Larchmont Harb N/A 75 N/A N/A MISG N/A Croton On Huds N/A 79 N/A N/A MISG N/A Somers N/A 77 55 47 S1 N/A Brewster N/A 70 59 68 NW1 N/A Newburgh MOCLDY 79 61 53 CALM 29.85R Montgomery FAIR 74 62 66 CALM 29.83R Otisville N/A 72 59 64 CALM N/A Warwick N/A 72 63 73 CALM N/A Suffern N/A 75 55 50 CALM N/A Poughkeepsie FAIR 75 62 64 CALM 29.82R Albany CLOUDY 72 60 66 N8 29.88R $$ NJZ001-105-106-008-010-013-015-019>022-104-270200- New Jersey CITY SKY/WX TMP DP RH WIND PRES REMARKS Newark/Liberty FAIR 79 66 64 S6 29.82R Teterboro FAIR 82 66 58 CALM 29.81R Caldwell N/A N/A N/A N/A MISG N/A Somerville FAIR 75 71 87 CALM 29.81R Linden FAIR 78 64 63 CALM 29.83 Perth Amboy N/A 75 N/A N/A NW6 N/A Sussex FAIR 73 61 65 W3 29.85R Andover N/A 73 63 70 CALM 29.86R Trenton FAIR 82 66 58 SW6 29.83R Millville FAIR 80 69 69 CALM 29.85R Atlantic City FAIR 80 70 71 S3 29.86R Wrightstown FAIR 80 69 68 SW7 29.82 Toms River FAIR 80 68 66 S3 29.85R Belmar TSTM 73 67 81 W10G22 29.86R $$ PAZ047>061-062-071-270200- Eastern Pennsylvania CITY SKY/WX TMP DP RH WIND PRES REMARKS Philadelphia CLOUDY 75 69 81 E3 29.84S Allentown FAIR 80 60 50 CALM 29.83S Scranton MOCLDY 76 58 53 E5 29.87R $$ CTZ002-004>006-009-010-012-RIZ004-006-007-MAZ004-011-015-270200- Southern New England In CT CITY SKY/WX TMP DP RH WIND PRES REMARKS Bradley Intl MOCLDY 80 58 46 W7 29.83R Hartford FAIR 79 62 56 S5 29.82R Danbury FAIR 71 63 75 SW5 29.86R Wtrbury/Oxford FAIR 76 62 62 CALM 29.87R Norwalk Harbor N/A 70 N/A N/A MISG N/A Bridgeport FAIR 73 66 78 CALM 29.83R Meriden FAIR 78 67 68 S3 29.84R New Haven FAIR 72 66 81 CALM 29.84R Chester FAIR 75 68 78 SW6 29.86R Groton FAIR 65 63 93 S5 29.84R Willimantic FAIR 77 69 76 CALM 29.84R In RI CITY SKY/WX TMP DP RH WIND PRES REMARKS Providence MOCLDY 74 65 73 NE9G21 29.86R Block Island FAIR 62 60 93 SW16 29.87R Westerly FAIR 68 63 84 S5 29.86R In MA CITY SKY/WX TMP DP RH WIND PRES REMARKS Boston CLOUDY 64 60 87 NE18 29.90R Worcester MOCLDY 69 58 67 NE9G21 29.92R Westfield FAIR 75 64 68 CALM 29.83R Provincetown FAIR 62 55 77 E14 29.90R Nantucket CLOUDY 56 56 100 SW9 29.87R FOG $$ ANZ330-335-338-340-345-350-353-355-270200- Coastal Marine Observations STATION/POSITION TIME SKY/WX TEMP WIND PRES VSBY WAVE AIR SEA DIR/SP/G HT/PER (UTC) (F) (DEG/KT/KT) (MB) (MI) (FT/S) NY Harb Entrance 0050 69 62 250/ 8/ 10 1009.6 3/ 6 20 S Fire Island 2350 61 56 200/ 8/ 10 1010.0 3/ 5 23 SSW Montauk P 2350 58 55 230/ 6/ 8 1011.0 3/ 6 15 E Barnegat Li 0030 60 N/A 4/ 5 Hudson Canyon 0050 61 56 220/ 14/ 16 1011.1 3/ 6 Kings Point 0042 78 60 200/ 6/ 7 1010.8 Execution Rocks NOT AVBL Western LI Sound 0020 72 270/ 4/ 4 N/A 1 Central LI Sound 0045 67 220/ 4/ 6 N/A 1 Robbins Reef 0042 77 170/ 6/ 6 1010.3 $$ >>>>>>>>>>>>>>>>>>>>>>>>>>>> KEY <<<<<<<<<<<<<<<<<<<<<<<<<<< > < > SKY/WX - Sky Condition/Present Weather < > TMP - Temperature in Fahrenheit < > DP - Dew Point in Fahrenheit < > RH - Relative Humidity in Percent < > WIND - Direction (from) and Speed in MPH < > PRES - Mean Sea Level Pressure (inches of Hg) < > WCI - Wind Chill Index < > VSB - Visibility in Miles < > HX - Heat Index < > TC - Temperature in Celsius < > VRB - Varibale Wind Direction < > < >>>>>>>>>>>>>>>>>>>>>>>>>>>> KEY <<<<<<<<<<<<<<<<<<<<<<<<<<<

USA.gov is the U.S. government's official web portal to all federal, state and local government web resources and services.